Location: Elk Horn Observatory
(36.6768°N, 80.8309°W)
Time: 13:49:31
(UTC-05:00)

Tiangong 2 - Pass Details

Date: 03 October 2018
Orbit: 382 x 391 km, 42.8° (Epoch: 12 December)

Event Time Altitude Azimuth Distance (km) Brightness Sun altitude
Exits shadow 06:03:47 - 187° (S) 1,935 4.5 -16.1°
Reaches altitude 10° 06:06:06 10° 157° (SSE) 1,412 4.1 -15.7°
Maximum altitude 06:07:04 11° 139° (SE) 1,353 4.3 -15.5°
Drops below altitude 10° 06:08:02 10° 122° (ESE) 1,416 4.7 -15.3°
Sets 06:11:27 0° 84° (E) 2,306 7.0 -14.6°
